owner,sensor,date,latitude,longitude,vertical_datum,sea_water_practical_salinity,qcFlag 
TCOON,ioos:station:TCOON:042:1,2012-01-01T00:00:00Z,27.8888,-97.5696,0.0,39.4,1111122 
TCOON,ioos:station:TCOON:042:1,2012-01-01T01:00:00Z,27.8888,-97.5696,0.0,39.8,1111122 
TCOON,ioos:station:TCOON:042:1,2012-01-01T01:30:00Z,27.8888,-97.5696,0.0,39.6,1111122 
TCOON,ioos:station:TCOON:042:1,2012-01-01T02:00:00Z,27.8888,-97.5696,0.0,39.5,1111122 
TCOON,ioos:station:TCOON:042:1,2012-01-01T02:30:00Z,27.8888,-97.5696,0.0,39.4,1111122 
TCOON,ioos:station:TCOON:042:1,2012-01-01T03:30:00Z,27.8888,-97.5696,0.0,39.4,1111122 
TCOON,ioos:station:TCOON:042:1,2012-01-01T04:00:00Z,27.8888,-97.5696,0.0,39.7,1111122 
TCOON,ioos:station:TCOON:042:1,2012-01-01T04:30:00Z,27.8888,-97.5696,0.0,40.2,1111122 
TCOON,ioos:station:TCOON:042:1,2012-01-01T05:00:00Z,27.8888,-97.5696,0.0,40.2,1111122 
TCOON,ioos:station:TCOON:042:1,2012-01-01T05:30:00Z,27.8888,-97.5696,0.0,40.6,1111122 
TCOON,ioos:station:TCOON:042:1,2012-01-01T06:00:00Z,27.8888,-97.5696,0.0,40.6,1111122 
TCOON,ioos:station:TCOON:042:1,2012-01-01T06:30:00Z,27.8888,-97.5696,0.0,40.9,1111122 
TCOON,ioos:station:TCOON:042:1,2012-01-01T07:00:00Z,27.8888,-97.5696,0.0,40.6,1111122 
TCOON,ioos:station:TCOON:042:1,2012-01-01T07:30:00Z,27.8888,-97.5696,0.0,40.7,1111122 
TCOON,ioos:station:TCOON:042:1,2012-01-01T08:00:00Z,27.8888,-97.5696,0.0,40.5,1111122 
TCOON,ioos:station:TCOON:042:1,2012-01-01T08:30:00Z,27.8888,-97.5696,0.0,39.9,1111122 
TCOON,ioos:station:TCOON:042:1,2012-01-01T09:00:00Z,27.8888,-97.5696,0.0,39.7,1111122 
TCOON,ioos:station:TCOON:042:1,2012-01-01T09:30:00Z,27.8888,-97.5696,0.0,39.1,1111122 
TCOON,ioos:station:TCOON:042:1,2012-01-01T10:30:00Z,27.8888,-97.5696,0.0,40.0,1111122 
TCOON,ioos:station:TCOON:042:1,2012-01-01T11:00:00Z,27.8888,-97.5696,0.0,40.8,1111122 
TCOON,ioos:station:TCOON:042:1,2012-01-01T11:30:00Z,27.8888,-97.5696,0.0,41.1,1111122 
TCOON,ioos:station:TCOON:042:1,2012-01-01T12:00:00Z,27.8888,-97.5696,0.0,42.6,1111122 
TCOON,ioos:station:TCOON:042:1,2012-01-01T12:30:00Z,27.8888,-97.5696,0.0,42.6,1111122 
TCOON,ioos:station:TCOON:042:1,2012-01-01T13:00:00Z,27.8888,-97.5696,0.0,43.1,1111122 
TCOON,ioos:station:TCOON:042:1,2012-01-01T13:30:00Z,27.8888,-97.5696,0.0,42.6,1111122 
TCOON,ioos:station:TCOON:042:1,2012-01-01T14:00:00Z,27.8888,-97.5696,0.0,42.6,1111122 
TCOON,ioos:station:TCOON:042:1,2012-01-01T14:30:00Z,27.8888,-97.5696,0.0,41.8,1111122 
TCOON,ioos:station:TCOON:042:1,2012-01-01T15:00:00Z,27.8888,-97.5696,0.0,43.2,1111122 
TCOON,ioos:station:TCOON:042:1,2012-01-01T15:30:00Z,27.8888,-97.5696,0.0,42.7,1111122 
TCOON,ioos:station:TCOON:042:1,2012-01-01T16:00:00Z,27.8888,-97.5696,0.0,43.4,1111122 
TCOON,ioos:station:TCOON:042:1,2012-01-01T17:00:00Z,27.8888,-97.5696,0.0,43.4,1111122 
TCOON,ioos:station:TCOON:042:1,2012-01-01T17:30:00Z,27.8888,-97.5696,0.0,43.4,1111122 
TCOON,ioos:station:TCOON:042:1,2012-01-01T18:00:00Z,27.8888,-97.5696,0.0,42.7,1111122 
TCOON,ioos:station:TCOON:042:1,2012-01-01T18:30:00Z,27.8888,-97.5696,0.0,43.5,1111122 
TCOON,ioos:station:TCOON:042:1,2012-01-01T19:00:00Z,27.8888,-97.5696,0.0,42.9,1111122 
TCOON,ioos:station:TCOON:042:1,2012-01-01T20:30:00Z,27.8888,-97.5696,0.0,41.8,1111122 
TCOON,ioos:station:TCOON:042:1,2012-01-01T21:00:00Z,27.8888,-97.5696,0.0,42.1,1111122 
TCOON,ioos:station:TCOON:042:1,2012-01-01T21:30:00Z,27.8888,-97.5696,0.0,42.4,1111122 
TCOON,ioos:station:TCOON:042:1,2012-01-01T22:00:00Z,27.8888,-97.5696,0.0,42.7,1111122 
TCOON,ioos:station:TCOON:042:1,2012-01-01T22:30:00Z,27.8888,-97.5696,0.0,42.9,1111122 
TCOON,ioos:station:TCOON:042:1,2012-01-01T23:00:00Z,27.8888,-97.5696,0.0,43.1,1111122 
TCOON,ioos:station:TCOON:042:1,2012-01-01T23:30:00Z,27.8888,-97.5696,0.0,43.4,1111122 
TCOON,ioos:station:TCOON:042:1,2012-01-02T00:00:00Z,27.8888,-97.5696,0.0,43.5,1111122 
TCOON,ioos:station:TCOON:042:1,2012-01-02T00:30:00Z,27.8888,-97.5696,0.0,43.5,1111122 
TCOON,ioos:station:TCOON:042:1,2012-01-02T01:00:00Z,27.8888,-97.5696,0.0,43.5,1111122 
TCOON,ioos:station:TCOON:042:1,2012-01-02T01:30:00Z,27.8888,-97.5696,0.0,43.5,1111122 
TCOON,ioos:station:TCOON:042:1,2012-01-02T03:00:00Z,27.8888,-97.5696,0.0,43.8,1111122 
TCOON,ioos:station:TCOON:042:1,2012-01-02T03:30:00Z,27.8888,-97.5696,0.0,43.9,1111122 
TCOON,ioos:station:TCOON:042:1,2012-01-02T04:00:00Z,27.8888,-97.5696,0.0,44.0,1111122 
TCOON,ioos:station:TCOON:042:1,2012-01-02T04:30:00Z,27.8888,-97.5696,0.0,44.2,1111122 
TCOON,ioos:station:TCOON:042:1,2012-01-02T05:00:00Z,27.8888,-97.5696,0.0,44.3,1111122 
TCOON,ioos:station:TCOON:042:1,2012-01-02T05:30:00Z,27.8888,-97.5696,0.0,44.5,1111122 
TCOON,ioos:station:TCOON:042:1,2012-01-02T06:30:00Z,27.8888,-97.5696,0.0,44.7,1111122 
TCOON,ioos:station:TCOON:042:1,2012-01-02T11:00:00Z,27.8888,-97.5696,0.0,44.8,1111122 
TCOON,ioos:station:TCOON:042:1,2012-01-02T11:30:00Z,27.8888,-97.5696,0.0,44.9,1111122 
TCOON,ioos:station:TCOON:042:1,2012-01-02T12:00:00Z,27.8888,-97.5696,0.0,45.1,1111122 
TCOON,ioos:station:TCOON:042:1,2012-01-02T12:30:00Z,27.8888,-97.5696,0.0,45.3,1111122 
TCOON,ioos:station:TCOON:042:1,2012-01-02T14:00:00Z,27.8888,-97.5696,0.0,45.5,1111122 
TCOON,ioos:station:TCOON:042:1,2012-01-02T14:30:00Z,27.8888,-97.5696,0.0,45.8,1111122 
TCOON,ioos:station:TCOON:042:1,2012-01-02T15:00:00Z,27.8888,-97.5696,0.0,46.1,1111122 
TCOON,ioos:station:TCOON:042:1,2012-01-02T15:30:00Z,27.8888,-97.5696,0.0,46.0,1111122 
TCOON,ioos:station:TCOON:042:1,2012-01-02T16:00:00Z,27.8888,-97.5696,0.0,39.3,1111122 
TCOON,ioos:station:TCOON:042:1,2012-01-02T16:30:00Z,27.8888,-97.5696,0.0,41.7,1111122 
TCOON,ioos:station:TCOON:042:1,2012-01-02T17:00:00Z,27.8888,-97.5696,0.0,40.8,1111122 
TCOON,ioos:station:TCOON:042:1,2012-01-02T17:30:00Z,27.8888,-97.5696,0.0,39.0,1111122 
TCOON,ioos:station:TCOON:042:1,2012-01-02T18:00:00Z,27.8888,-97.5696,0.0,37.8,1111122 
TCOON,ioos:station:TCOON:042:1,2012-01-02T18:30:00Z,27.8888,-97.5696,0.0,37.0,1111122 
TCOON,ioos:station:TCOON:042:1,2012-01-02T19:00:00Z,27.8888,-97.5696,0.0,34.7,1111122 
TCOON,ioos:station:TCOON:042:1,2012-01-02T23:00:00Z,27.8888,-97.5696,0.0,37.7,1111122 
TCOON,ioos:station:TCOON:042:1,2012-01-02T23:30:00Z,27.8888,-97.5696,0.0,37.9,1111122 
TCOON,ioos:station:TCOON:042:1,2012-01-03T00:00:00Z,27.8888,-97.5696,0.0,37.9,1111122 
TCOON,ioos:station:TCOON:042:1,2012-01-03T00:30:00Z,27.8888,-97.5696,0.0,38.2,1111122 
TCOON,ioos:station:TCOON:042:1,2012-01-03T01:00:00Z,27.8888,-97.5696,0.0,38.7,1111122 
TCOON,ioos:station:TCOON:042:1,2012-01-03T01:30:00Z,27.8888,-97.5696,0.0,38.4,1111122 
TCOON,ioos:station:TCOON:042:1,2012-01-03T02:00:00Z,27.8888,-97.5696,0.0,38.9,1111122 
TCOON,ioos:station:TCOON:042:1,2012-01-03T02:30:00Z,27.8888,-97.5696,0.0,39.4,1111122 
TCOON,ioos:station:TCOON:042:1,2012-01-03T03:00:00Z,27.8888,-97.5696,0.0,39.5,1111122 
TCOON,ioos:station:TCOON:042:1,2012-01-03T03:30:00Z,27.8888,-97.5696,0.0,39.7,1111122 
TCOON,ioos:station:TCOON:042:1,2012-01-03T04:00:00Z,27.8888,-97.5696,0.0,40.0,1111122 
TCOON,ioos:station:TCOON:042:1,2012-01-03T04:30:00Z,27.8888,-97.5696,0.0,40.2,1111122 
TCOON,ioos:station:TCOON:042:1,2012-01-03T05:00:00Z,27.8888,-97.5696,0.0,40.2,1111122 
TCOON,ioos:station:TCOON:042:1,2012-01-03T05:30:00Z,27.8888,-97.5696,0.0,40.2,1111122 
TCOON,ioos:station:TCOON:042:1,2012-01-03T06:00:00Z,27.8888,-97.5696,0.0,40.8,1111122 
TCOON,ioos:station:TCOON:042:1,2012-01-03T06:30:00Z,27.8888,-97.5696,0.0,41.2,1111122 
TCOON,ioos:station:TCOON:042:1,2012-01-03T07:00:00Z,27.8888,-97.5696,0.0,41.1,1111122 
TCOON,ioos:station:TCOON:042:1,2012-01-03T07:30:00Z,27.8888,-97.5696,0.0,40.8,1111122 
TCOON,ioos:station:TCOON:042:1,2012-01-03T08:00:00Z,27.8888,-97.5696,0.0,41.4,1111122 
TCOON,ioos:station:TCOON:042:1,2012-01-03T08:30:00Z,27.8888,-97.5696,0.0,41.5,1111122 
TCOON,ioos:station:TCOON:042:1,2012-01-03T09:00:00Z,27.8888,-97.5696,0.0,41.6,1111122 
TCOON,ioos:station:TCOON:042:1,2012-01-03T09:30:00Z,27.8888,-97.5696,0.0,41.7,1111122 
TCOON,ioos:station:TCOON:042:1,2012-01-03T10:00:00Z,27.8888,-97.5696,0.0,41.9,1111122 
TCOON,ioos:station:TCOON:042:1,2012-01-03T10:30:00Z,27.8888,-97.5696,0.0,42.3,1111122 
TCOON,ioos:station:TCOON:042:1,2012-01-03T11:00:00Z,27.8888,-97.5696,0.0,42.4,1111122 
TCOON,ioos:station:TCOON:042:1,2012-01-03T11:30:00Z,27.8888,-97.5696,0.0,42.5,1111122 
TCOON,ioos:station:TCOON:042:1,2012-01-03T12:00:00Z,27.8888,-97.5696,0.0,42.5,1111122 
TCOON,ioos:station:TCOON:042:1,2012-01-03T12:30:00Z,27.8888,-97.5696,0.0,43.3,1111122 
TCOON,ioos:station:TCOON:042:1,2012-01-03T13:00:00Z,27.8888,-97.5696,0.0,42.5,1111122 
TCOON,ioos:station:TCOON:042:1,2012-01-03T13:30:00Z,27.8888,-97.5696,0.0,42.7,1111122 
TCOON,ioos:station:TCOON:042:1,2012-01-03T14:00:00Z,27.8888,-97.5696,0.0,42.7,1111122 
TCOON,ioos:station:TCOON:042:1,2012-01-03T14:30:00Z,27.8888,-97.5696,0.0,42.2,1111122 
TCOON,ioos:station:TCOON:042:1,2012-01-03T15:00:00Z,27.8888,-97.5696,0.0,42.8,1111122 
TCOON,ioos:station:TCOON:042:1,2012-01-03T15:30:00Z,27.8888,-97.5696,0.0,42.9,1111122 
TCOON,ioos:station:TCOON:042:1,2012-01-03T16:30:00Z,27.8888,-97.5696,0.0,41.5,1111122 
TCOON,ioos:station:TCOON:042:1,2012-01-03T17:00:00Z,27.8888,-97.5696,0.0,41.3,1111122 
TCOON,ioos:station:TCOON:042:1,2012-01-03T18:00:00Z,27.8888,-97.5696,0.0,41.4,1111122 
TCOON,ioos:station:TCOON:042:1,2012-01-03T18:30:00Z,27.8888,-97.5696,0.0,41.1,1111122 
TCOON,ioos:station:TCOON:042:1,2012-01-03T19:00:00Z,27.8888,-97.5696,0.0,39.6,1111122 
TCOON,ioos:station:TCOON:042:1,2012-01-03T19:30:00Z,27.8888,-97.5696,0.0,38.7,1111122 
TCOON,ioos:station:TCOON:042:1,2012-01-03T20:30:00Z,27.8888,-97.5696,0.0,37.8,1111122 
TCOON,ioos:station:TCOON:042:1,2012-01-03T21:30:00Z,27.8888,-97.5696,0.0,37.7,1111122 
TCOON,ioos:station:TCOON:042:1,2012-01-03T22:00:00Z,27.8888,-97.5696,0.0,37.8,1111122 
TCOON,ioos:station:TCOON:042:1,2012-01-03T22:30:00Z,27.8888,-97.5696,0.0,36.0,1111122 
TCOON,ioos:station:TCOON:042:1,2012-01-03T23:00:00Z,27.8888,-97.5696,0.0,33.4,1111122 
TCOON,ioos:station:TCOON:042:1,2012-01-04T00:00:00Z,27.8888,-97.5696,0.0,35.3,1111122 
TCOON,ioos:station:TCOON:042:1,2012-01-04T00:30:00Z,27.8888,-97.5696,0.0,35.1,1111122 
TCOON,ioos:station:TCOON:042:1,2012-01-04T01:00:00Z,27.8888,-97.5696,0.0,35.3,1111122 
TCOON,ioos:station:TCOON:042:1,2012-01-04T02:00:00Z,27.8888,-97.5696,0.0,35.9,1111122 
TCOON,ioos:station:TCOON:042:1,2012-01-04T02:30:00Z,27.8888,-97.5696,0.0,36.4,1111122 
TCOON,ioos:station:TCOON:042:1,2012-01-04T03:00:00Z,27.8888,-97.5696,0.0,36.4,1111122 
TCOON,ioos:station:TCOON:042:1,2012-01-04T03:30:00Z,27.8888,-97.5696,0.0,36.6,1111122 
TCOON,ioos:station:TCOON:042:1,2012-01-04T04:00:00Z,27.8888,-97.5696,0.0,37.1,1111122 
TCOON,ioos:station:TCOON:042:1,2012-01-04T04:30:00Z,27.8888,-97.5696,0.0,35.8,1111122 
TCOON,ioos:station:TCOON:042:1,2012-01-04T05:00:00Z,27.8888,-97.5696,0.0,36.6,1111122 
TCOON,ioos:station:TCOON:042:1,2012-01-04T05:30:00Z,27.8888,-97.5696,0.0,37.1,1111122 
TCOON,ioos:station:TCOON:042:1,2012-01-04T06:00:00Z,27.8888,-97.5696,0.0,37.0,1111122 
TCOON,ioos:station:TCOON:042:1,2012-01-04T06:30:00Z,27.8888,-97.5696,0.0,37.1,1111122 
TCOON,ioos:station:TCOON:042:1,2012-01-04T07:00:00Z,27.8888,-97.5696,0.0,37.4,1111122 
TCOON,ioos:station:TCOON:042:1,2012-01-04T07:30:00Z,27.8888,-97.5696,0.0,37.8,1111122 
TCOON,ioos:station:TCOON:042:1,2012-01-04T08:00:00Z,27.8888,-97.5696,0.0,37.8,1111122 
TCOON,ioos:station:TCOON:042:1,2012-01-04T08:30:00Z,27.8888,-97.5696,0.0,38.3,1111122 
TCOON,ioos:station:TCOON:042:1,2012-01-04T09:00:00Z,27.8888,-97.5696,0.0,39.1,1111122 
TCOON,ioos:station:TCOON:042:1,2012-01-04T09:30:00Z,27.8888,-97.5696,0.0,40.2,1111122 
TCOON,ioos:station:TCOON:042:1,2012-01-04T10:00:00Z,27.8888,-97.5696,0.0,40.7,1111122 
TCOON,ioos:station:TCOON:042:1,2012-01-04T11:00:00Z,27.8888,-97.5696,0.0,41.4,1111122 
TCOON,ioos:station:TCOON:042:1,2012-01-04T11:30:00Z,27.8888,-97.5696,0.0,41.2,1111122 
TCOON,ioos:station:TCOON:042:1,2012-01-04T12:00:00Z,27.8888,-97.5696,0.0,41.3,1111122 
TCOON,ioos:station:TCOON:042:1,2012-01-04T12:30:00Z,27.8888,-97.5696,0.0,40.7,1111122 
TCOON,ioos:station:TCOON:042:1,2012-01-04T13:00:00Z,27.8888,-97.5696,0.0,41.5,1111122 
TCOON,ioos:station:TCOON:042:1,2012-01-04T13:30:00Z,27.8888,-97.5696,0.0,41.4,1111122 
TCOON,ioos:station:TCOON:042:1,2012-01-04T14:00:00Z,27.8888,-97.5696,0.0,41.5,1111122 
TCOON,ioos:station:TCOON:042:1,2012-01-04T14:30:00Z,27.8888,-97.5696,0.0,41.7,1111122 
TCOON,ioos:station:TCOON:042:1,2012-01-04T15:30:00Z,27.8888,-97.5696,0.0,40.9,1111122 
TCOON,ioos:station:TCOON:042:1,2012-01-04T16:00:00Z,27.8888,-97.5696,0.0,41.0,1111122 
TCOON,ioos:station:TCOON:042:1,2012-01-04T16:30:00Z,27.8888,-97.5696,0.0,41.0,1111122 
TCOON,ioos:station:TCOON:042:1,2012-01-04T17:00:00Z,27.8888,-97.5696,0.0,40.5,1111122 
TCOON,ioos:station:TCOON:042:1,2012-01-04T18:00:00Z,27.8888,-97.5696,0.0,40.2,1111122 
TCOON,ioos:station:TCOON:042:1,2012-01-04T18:30:00Z,27.8888,-97.5696,0.0,40.1,1111122 
TCOON,ioos:station:TCOON:042:1,2012-01-04T19:00:00Z,27.8888,-97.5696,0.0,39.7,1111122 
TCOON,ioos:station:TCOON:042:1,2012-01-04T19:30:00Z,27.8888,-97.5696,0.0,39.9,1111122 
TCOON,ioos:station:TCOON:042:1,2012-01-04T20:00:00Z,27.8888,-97.5696,0.0,39.7,1111122 
TCOON,ioos:station:TCOON:042:1,2012-01-04T21:30:00Z,27.8888,-97.5696,0.0,39.7,1111122 
TCOON,ioos:station:TCOON:042:1,2012-01-04T22:00:00Z,27.8888,-97.5696,0.0,39.7,1111122 
TCOON,ioos:station:TCOON:042:1,2012-01-04T22:30:00Z,27.8888,-97.5696,0.0,39.8,1111122 
TCOON,ioos:station:TCOON:042:1,2012-01-04T23:00:00Z,27.8888,-97.5696,0.0,39.8,1111122 
TCOON,ioos:station:TCOON:042:1,2012-01-04T23:30:00Z,27.8888,-97.5696,0.0,39.9,1111122 
TCOON,ioos:station:TCOON:042:1,2012-01-05T00:00:00Z,27.8888,-97.5696,0.0,40.0,1111122 
TCOON,ioos:station:TCOON:042:1,2012-01-05T01:00:00Z,27.8888,-97.5696,0.0,36.1,1111122 
TCOON,ioos:station:TCOON:042:1,2012-01-05T01:30:00Z,27.8888,-97.5696,0.0,37.4,1111122 
TCOON,ioos:station:TCOON:042:1,2012-01-05T02:00:00Z,27.8888,-97.5696,0.0,36.8,1111122 
TCOON,ioos:station:TCOON:042:1,2012-01-05T02:30:00Z,27.8888,-97.5696,0.0,34.4,1111122 
TCOON,ioos:station:TCOON:042:1,2012-01-05T03:00:00Z,27.8888,-97.5696,0.0,33.8,1111122 
TCOON,ioos:station:TCOON:042:1,2012-01-05T04:00:00Z,27.8888,-97.5696,0.0,33.1,1111122 
TCOON,ioos:station:TCOON:042:1,2012-01-05T04:30:00Z,27.8888,-97.5696,0.0,33.0,1111122 
TCOON,ioos:station:TCOON:042:1,2012-01-05T05:00:00Z,27.8888,-97.5696,0.0,33.9,1111122 
TCOON,ioos:station:TCOON:042:1,2012-01-05T05:30:00Z,27.8888,-97.5696,0.0,34.3,1111122 
TCOON,ioos:station:TCOON:042:1,2012-01-05T06:00:00Z,27.8888,-97.5696,0.0,35.0,1111122 
TCOON,ioos:station:TCOON:042:1,2012-01-05T06:30:00Z,27.8888,-97.5696,0.0,38.2,1111122 
TCOON,ioos:station:TCOON:042:1,2012-01-05T07:00:00Z,27.8888,-97.5696,0.0,42.9,1111122 
TCOON,ioos:station:TCOON:042:1,2012-01-05T07:30:00Z,27.8888,-97.5696,0.0,43.2,1111122 
TCOON,ioos:station:TCOON:042:1,2012-01-05T08:00:00Z,27.8888,-97.5696,0.0,43.2,1111122 
TCOON,ioos:station:TCOON:042:1,2012-01-05T08:30:00Z,27.8888,-97.5696,0.0,43.3,1111122 
TCOON,ioos:station:TCOON:042:1,2012-01-05T09:00:00Z,27.8888,-97.5696,0.0,43.5,1111122 
TCOON,ioos:station:TCOON:042:1,2012-01-05T09:30:00Z,27.8888,-97.5696,0.0,43.6,1111122 
TCOON,ioos:station:TCOON:042:1,2012-01-05T10:00:00Z,27.8888,-97.5696,0.0,43.7,1111122 
TCOON,ioos:station:TCOON:042:1,2012-01-05T11:00:00Z,27.8888,-97.5696,0.0,43.8,1111122 
TCOON,ioos:station:TCOON:042:1,2012-01-05T11:30:00Z,27.8888,-97.5696,0.0,43.8,1111122 
TCOON,ioos:station:TCOON:042:1,2012-01-05T12:00:00Z,27.8888,-97.5696,0.0,43.7,1111122 
TCOON,ioos:station:TCOON:042:1,2012-01-05T12:30:00Z,27.8888,-97.5696,0.0,43.6,1111122 
TCOON,ioos:station:TCOON:042:1,2012-01-05T13:00:00Z,27.8888,-97.5696,0.0,43.6,1111122 
TCOON,ioos:station:TCOON:042:1,2012-01-05T13:30:00Z,27.8888,-97.5696,0.0,43.6,1111122 
TCOON,ioos:station:TCOON:042:1,2012-01-05T14:00:00Z,27.8888,-97.5696,0.0,43.4,1111122 
TCOON,ioos:station:TCOON:042:1,2012-01-05T14:30:00Z,27.8888,-97.5696,0.0,42.6,1111122 
TCOON,ioos:station:TCOON:042:1,2012-01-05T15:00:00Z,27.8888,-97.5696,0.0,41.1,1111122 
TCOON,ioos:station:TCOON:042:1,2012-01-05T15:30:00Z,27.8888,-97.5696,0.0,41.9,1111122 
TCOON,ioos:station:TCOON:042:1,2012-01-05T16:00:00Z,27.8888,-97.5696,0.0,41.6,1111122 
TCOON,ioos:station:TCOON:042:1,2012-01-05T16:30:00Z,27.8888,-97.5696,0.0,40.3,1111122 
TCOON,ioos:station:TCOON:042:1,2012-01-05T17:00:00Z,27.8888,-97.5696,0.0,39.7,1111122 
TCOON,ioos:station:TCOON:042:1,2012-01-05T17:30:00Z,27.8888,-97.5696,0.0,39.4,1111122 
TCOON,ioos:station:TCOON:042:1,2012-01-05T18:00:00Z,27.8888,-97.5696,0.0,39.0,1111122 
TCOON,ioos:station:TCOON:042:1,2012-01-05T19:00:00Z,27.8888,-97.5696,0.0,39.0,1111122 
TCOON,ioos:station:TCOON:042:1,2012-01-05T19:30:00Z,27.8888,-97.5696,0.0,38.0,1111122 
TCOON,ioos:station:TCOON:042:1,2012-01-05T20:30:00Z,27.8888,-97.5696,0.0,39.4,1111122 
TCOON,ioos:station:TCOON:042:1,2012-01-05T23:00:00Z,27.8888,-97.5696,0.0,37.8,1111122 
TCOON,ioos:station:TCOON:042:1,2012-01-05T23:30:00Z,27.8888,-97.5696,0.0,37.3,1111122 
TCOON,ioos:station:TCOON:042:1,2012-01-06T00:00:00Z,27.8888,-97.5696,0.0,36.6,1111122 
TCOON,ioos:station:TCOON:042:1,2012-01-06T00:30:00Z,27.8888,-97.5696,0.0,35.9,1111122 
TCOON,ioos:station:TCOON:042:1,2012-01-06T01:30:00Z,27.8888,-97.5696,0.0,36.2,1111122 
TCOON,ioos:station:TCOON:042:1,2012-01-06T02:00:00Z,27.8888,-97.5696,0.0,36.5,1111122 
TCOON,ioos:station:TCOON:042:1,2012-01-06T02:30:00Z,27.8888,-97.5696,0.0,36.3,1111122 
TCOON,ioos:station:TCOON:042:1,2012-01-06T03:00:00Z,27.8888,-97.5696,0.0,35.7,1111122 
TCOON,ioos:station:TCOON:042:1,2012-01-06T03:30:00Z,27.8888,-97.5696,0.0,36.5,1111122 
TCOON,ioos:station:TCOON:042:1,2012-01-06T04:30:00Z,27.8888,-97.5696,0.0,36.9,1111122 
TCOON,ioos:station:TCOON:042:1,2012-01-06T05:00:00Z,27.8888,-97.5696,0.0,37.3,1111122 
TCOON,ioos:station:TCOON:042:1,2012-01-06T05:30:00Z,27.8888,-97.5696,0.0,37.7,1111122 
TCOON,ioos:station:TCOON:042:1,2012-01-06T06:00:00Z,27.8888,-97.5696,0.0,38.2,1111122 
TCOON,ioos:station:TCOON:042:1,2012-01-06T06:30:00Z,27.8888,-97.5696,0.0,38.6,1111122 
TCOON,ioos:station:TCOON:042:1,2012-01-06T07:00:00Z,27.8888,-97.5696,0.0,38.5,1111122 
TCOON,ioos:station:TCOON:042:1,2012-01-06T07:30:00Z,27.8888,-97.5696,0.0,38.6,1111122 
TCOON,ioos:station:TCOON:042:1,2012-01-06T08:00:00Z,27.8888,-97.5696,0.0,38.7,1111122 
TCOON,ioos:station:TCOON:042:1,2012-01-06T08:30:00Z,27.8888,-97.5696,0.0,38.5,1111122 
TCOON,ioos:station:TCOON:042:1,2012-01-06T09:00:00Z,27.8888,-97.5696,0.0,38.5,1111122 
TCOON,ioos:station:TCOON:042:1,2012-01-06T09:30:00Z,27.8888,-97.5696,0.0,38.5,1111122 
TCOON,ioos:station:TCOON:042:1,2012-01-06T10:00:00Z,27.8888,-97.5696,0.0,38.5,1111122 
TCOON,ioos:station:TCOON:042:1,2012-01-06T10:30:00Z,27.8888,-97.5696,0.0,38.5,1111122 
TCOON,ioos:station:TCOON:042:1,2012-01-06T11:00:00Z,27.8888,-97.5696,0.0,38.5,1111122 
TCOON,ioos:station:TCOON:042:1,2012-01-06T12:30:00Z,27.8888,-97.5696,0.0,38.7,1111122 
TCOON,ioos:station:TCOON:042:1,2012-01-06T13:00:00Z,27.8888,-97.5696,0.0,38.7,1111122 
TCOON,ioos:station:TCOON:042:1,2012-01-06T13:30:00Z,27.8888,-97.5696,0.0,38.7,1111122 
TCOON,ioos:station:TCOON:042:1,2012-01-06T14:00:00Z,27.8888,-97.5696,0.0,38.7,1111122 
TCOON,ioos:station:TCOON:042:1,2012-01-06T14:30:00Z,27.8888,-97.5696,0.0,38.7,1111122 
TCOON,ioos:station:TCOON:042:1,2012-01-06T15:00:00Z,27.8888,-97.5696,0.0,38.6,1111122 
TCOON,ioos:station:TCOON:042:1,2012-01-06T15:30:00Z,27.8888,-97.5696,0.0,38.6,1111122 
TCOON,ioos:station:TCOON:042:1,2012-01-06T16:00:00Z,27.8888,-97.5696,0.0,38.6,1111122 
TCOON,ioos:station:TCOON:042:1,2012-01-06T16:30:00Z,27.8888,-97.5696,0.0,38.6,1111122 
TCOON,ioos:station:TCOON:042:1,2012-01-06T17:00:00Z,27.8888,-97.5696,0.0,38.3,1111122 
TCOON,ioos:station:TCOON:042:1,2012-01-06T17:30:00Z,27.8888,-97.5696,0.0,38.4,1111122 
TCOON,ioos:station:TCOON:042:1,2012-01-06T18:00:00Z,27.8888,-97.5696,0.0,38.0,1111122 
TCOON,ioos:station:TCOON:042:1,2012-01-06T18:30:00Z,27.8888,-97.5696,0.0,37.9,1111122 
TCOON,ioos:station:TCOON:042:1,2012-01-06T19:00:00Z,27.8888,-97.5696,0.0,37.9,1111122 
TCOON,ioos:station:TCOON:042:1,2012-01-06T19:30:00Z,27.8888,-97.5696,0.0,37.9,1111122 
TCOON,ioos:station:TCOON:042:1,2012-01-06T20:00:00Z,27.8888,-97.5696,0.0,38.0,1111122 
TCOON,ioos:station:TCOON:042:1,2012-01-06T20:30:00Z,27.8888,-97.5696,0.0,38.1,1111122 
TCOON,ioos:station:TCOON:042:1,2012-01-06T21:30:00Z,27.8888,-97.5696,0.0,38.3,1111122 
TCOON,ioos:station:TCOON:042:1,2012-01-06T22:00:00Z,27.8888,-97.5696,0.0,38.4,1111122 
TCOON,ioos:station:TCOON:042:1,2012-01-06T22:30:00Z,27.8888,-97.5696,0.0,38.4,1111122 
TCOON,ioos:station:TCOON:042:1,2012-01-06T23:00:00Z,27.8888,-97.5696,0.0,38.5,1111122 
TCOON,ioos:station:TCOON:042:1,2012-01-06T23:30:00Z,27.8888,-97.5696,0.0,38.6,1111122 
TCOON,ioos:station:TCOON:042:1,2012-01-07T00:00:00Z,27.8888,-97.5696,0.0,38.7,1111122 
TCOON,ioos:station:TCOON:042:1,2012-01-07T00:30:00Z,27.8888,-97.5696,0.0,38.7,1111122 
TCOON,ioos:station:TCOON:042:1,2012-01-07T01:30:00Z,27.8888,-97.5696,0.0,38.8,1111122 
TCOON,ioos:station:TCOON:042:1,2012-01-07T02:30:00Z,27.8888,-97.5696,0.0,38.9,1111122 
TCOON,ioos:station:TCOON:042:1,2012-01-07T03:00:00Z,27.8888,-97.5696,0.0,38.9,1111122 
TCOON,ioos:station:TCOON:042:1,2012-01-07T04:30:00Z,27.8888,-97.5696,0.0,39.0,1111122 
TCOON,ioos:station:TCOON:042:1,2012-01-07T05:00:00Z,27.8888,-97.5696,0.0,39.0,1111122 
TCOON,ioos:station:TCOON:042:1,2012-01-07T05:30:00Z,27.8888,-97.5696,0.0,39.1,1111122 
TCOON,ioos:station:TCOON:042:1,2012-01-07T06:00:00Z,27.8888,-97.5696,0.0,39.0,1111122 
TCOON,ioos:station:TCOON:042:1,2012-01-07T06:30:00Z,27.8888,-97.5696,0.0,39.0,1111122 
TCOON,ioos:station:TCOON:042:1,2012-01-07T07:30:00Z,27.8888,-97.5696,0.0,39.1,1111122 
TCOON,ioos:station:TCOON:042:1,2012-01-07T08:30:00Z,27.8888,-97.5696,0.0,39.0,1111122 
TCOON,ioos:station:TCOON:042:1,2012-01-07T09:00:00Z,27.8888,-97.5696,0.0,39.1,1111122 
TCOON,ioos:station:TCOON:042:1,2012-01-07T09:30:00Z,27.8888,-97.5696,0.0,39.0,1111122 
TCOON,ioos:station:TCOON:042:1,2012-01-07T10:00:00Z,27.8888,-97.5696,0.0,39.0,1111122 
TCOON,ioos:station:TCOON:042:1,2012-01-07T10:30:00Z,27.8888,-97.5696,0.0,39.1,1111122 
TCOON,ioos:station:TCOON:042:1,2012-01-07T11:00:00Z,27.8888,-97.5696,0.0,39.1,1111122 
TCOON,ioos:station:TCOON:042:1,2012-01-07T11:30:00Z,27.8888,-97.5696,0.0,38.9,1111122 
TCOON,ioos:station:TCOON:042:1,2012-01-07T12:30:00Z,27.8888,-97.5696,0.0,39.0,1111122 
TCOON,ioos:station:TCOON:042:1,2012-01-07T13:00:00Z,27.8888,-97.5696,0.0,39.1,1111122 
TCOON,ioos:station:TCOON:042:1,2012-01-07T13:30:00Z,27.8888,-97.5696,0.0,39.2,1111122 
TCOON,ioos:station:TCOON:042:1,2012-01-07T14:00:00Z,27.8888,-97.5696,0.0,38.3,1111122 
TCOON,ioos:station:TCOON:042:1,2012-01-07T14:30:00Z,27.8888,-97.5696,0.0,38.0,1111122 
TCOON,ioos:station:TCOON:042:1,2012-01-07T15:00:00Z,27.8888,-97.5696,0.0,38.1,1111122 
TCOON,ioos:station:TCOON:042:1,2012-01-07T15:30:00Z,27.8888,-97.5696,0.0,38.4,1111122 
TCOON,ioos:station:TCOON:042:1,2012-01-07T16:00:00Z,27.8888,-97.5696,0.0,38.8,1111122 
TCOON,ioos:station:TCOON:042:1,2012-01-07T16:30:00Z,27.8888,-97.5696,0.0,39.5,1111122 
TCOON,ioos:station:TCOON:042:1,2012-01-07T17:00:00Z,27.8888,-97.5696,0.0,39.9,1111122 
TCOON,ioos:station:TCOON:042:1,2012-01-07T17:30:00Z,27.8888,-97.5696,0.0,40.0,1111122 
TCOON,ioos:station:TCOON:042:1,2012-01-07T18:00:00Z,27.8888,-97.5696,0.0,40.0,1111122 
TCOON,ioos:station:TCOON:042:1,2012-01-07T19:00:00Z,27.8888,-97.5696,0.0,40.2,1111122 
TCOON,ioos:station:TCOON:042:1,2012-01-07T19:30:00Z,27.8888,-97.5696,0.0,40.4,1111122 
TCOON,ioos:station:TCOON:042:1,2012-01-07T20:00:00Z,27.8888,-97.5696,0.0,40.5,1111122 
TCOON,ioos:station:TCOON:042:1,2012-01-07T20:30:00Z,27.8888,-97.5696,0.0,41.0,1111122 
TCOON,ioos:station:TCOON:042:1,2012-01-07T21:30:00Z,27.8888,-97.5696,0.0,41.2,1111122 
TCOON,ioos:station:TCOON:042:1,2012-01-07T22:00:00Z,27.8888,-97.5696,0.0,41.4,1111122 
TCOON,ioos:station:TCOON:042:1,2012-01-07T22:30:00Z,27.8888,-97.5696,0.0,41.0,1111122 